Wetterstats.de || Aktuelle Messwerte || Aktuelle Wetterkarten NEU! || Radar / Satellit NEU! || Wetterarchiv || Langzeitwerte NEU! || Klim. Kenntage || Met. Ereignisse || Agrarwerte || Echtzeitwerte

Monatsübersicht für Juni 2020 Diagramm
 
Wetter Information zur Wetteranzeige
Zeitraffer
Tageslänge (hh:mm)
Höchsttemperatur in °C
Uhrzeit
Tiefsttemperatur in °C
Uhrzeit
Luftfeuchte (max., in %)
Uhrzeit
Luftfeuchte (min., in %)
Uhrzeit
Luftdruck (max., in hPa)
Uhrzeit
Luftdruck (min., in hPa)
Uhrzeit
Luftdruck (Ø, in hPa)
Regenrate (max, mm/h)
Uhrzeit
Niederschlag in mm
Verdunstung in mm
Solar in W/m² (Ø)
Solar in W/m² (max.)
UV-Index (max.)
Sonnenscheindauer (hh:mm)
Windrichtung (Ø)
Windstärke (Ø in km/h)
Windstärke (Ø in bft)
Windböe (max., in km/h)
Uhrzeit
Windböe (max., in bft)
Uhrzeit
Taupunkt (max., in °C)
Uhrzeit
Taupunkt (min., in °C)
Uhrzeit
Windchill (min., in °C)
Uhrzeit
Gewitterindex (max.)
Uhrzeit
Waldbrandindex (max.)
Uhrzeit
Graslandfeuerindex (max.)
Uhrzeit
Staubsturm-Index (max.)
Uhrzeit
01
Zeitraffer
16:35
23.6
16:00 Uhr
7.0
05:20 Uhr

90
05:25 Uhr
29
13:50 Uhr
1024.9
09:25 Uhr

1022.4
20:40 Uhr
1023.6
0,000
00:00 Uhr
0,000
6.452
493
917
13:20 Uhr
6.7
12:50 Uhr

12:55:00
9,5
2
38,6
13:25 Uhr

5
9.6
16:45 Uhr
3.1
13:50 Uhr
7.0
05:20 Uhr
2
16:40 Uhr
5.9
00:00 Uhr
5.9
00:00 Uhr
0.0
00:00 Uhr
02
Zeitraffer
16:37
27.2
15:40 Uhr
7.4
05:25 Uhr

90
04:10 Uhr
31
16:50 Uhr
1022.9
00:00 Uhr

1011.6
23:50 Uhr
1017.1
0,000
00:00 Uhr
0,000
6.325
480
1025
13:50 Uhr
6.7
13:05 Uhr

12:25:00
5,9
1
35,4
13:10 Uhr

5
11.2
23:25 Uhr
5.5
05:55 Uhr
7.4
05:25 Uhr
3
22:10 Uhr
5.9
00:00 Uhr
5.9
00:00 Uhr
0.0
00:00 Uhr
03
Zeitraffer
16:39
24.7
15:30 Uhr
9.5
05:10 Uhr

92
05:15 Uhr
28
14:10 Uhr
1011.7
00:00 Uhr

1002.1
23:25 Uhr
1006.7
0,000
00:00 Uhr
0,000
5.690
482
907
13:00 Uhr
6.4
12:50 Uhr

12:08:00
4,2
1
20,9
13:40 Uhr

4
10.5
00:00 Uhr
3.7
14:35 Uhr
9.5
05:10 Uhr
2
00:00 Uhr
5.9
00:00 Uhr
5.9
00:00 Uhr
0.0
00:00 Uhr
04
Zeitraffer
16:41
25.2
14:45 Uhr
11.4
04:25 Uhr

93
23:45 Uhr
31
14:45 Uhr
1002.1
00:00 Uhr

991.7
22:55 Uhr
996.1
2,400
19:55 Uhr
1,200
4.597
311
1053
14:40 Uhr
6.0
14:40 Uhr

07:01:00
7,4
2
48,3
13:30 Uhr

6
14.8
21:30 Uhr
5.9
12:00 Uhr
11.4
04:25 Uhr
8
22:15 Uhr
5.9
00:00 Uhr
5.9
00:00 Uhr
0.0
00:00 Uhr
05
Zeitraffer
16:43
17.9
18:55 Uhr
11.3
09:30 Uhr

94
00:05 Uhr
44
19:10 Uhr
996.1
12:30 Uhr

991.6
00:20 Uhr
994.1
4,800
00:10 Uhr
1,400
2.769
260
1118
13:05 Uhr
6.2
11:40 Uhr

04:00:00
7,5
2
38,6
23:40 Uhr

5
14.6
00:05 Uhr
4.9
19:10 Uhr
6.5
23:40 Uhr
8
00:00 Uhr
5.9
00:00 Uhr
5.9
00:00 Uhr
0.0
00:00 Uhr
06
Zeitraffer
16:44
18.7
17:40 Uhr
9.1
04:40 Uhr

80
04:25 Uhr
38
15:05 Uhr
1005.4
23:55 Uhr

994.2
00:00 Uhr
1000.9
0,000
00:00 Uhr
0,000
2.946
314
1146
11:55 Uhr
6.8
12:50 Uhr

03:19:00
8,6
2
37,0
00:05 Uhr

5
8.7
00:00 Uhr
3.1
12:55 Uhr
4.0
04:30 Uhr
0
00:00 Uhr
5.9
00:00 Uhr
5.9
00:00 Uhr
0.0
00:00 Uhr
07
Zeitraffer
16:45
19.4
15:35 Uhr
13.2
23:30 Uhr

81
23:45 Uhr
46
17:45 Uhr
1010.2
23:50 Uhr

1005.3
00:05 Uhr
1008.2
0,000
00:05 Uhr
0,000
2.057
251
1062
12:55 Uhr
7.0
12:55 Uhr

01:48:00
5,0
1
27,4
15:40 Uhr

4
11.5
12:00 Uhr
6.6
17:45 Uhr
12.5
11:19 Uhr
2
11:55 Uhr
5.9
00:05 Uhr
5.9
00:05 Uhr
0.0
00:05 Uhr
08
Zeitraffer
16:46
22.0
16:45 Uhr
8.0
05:30 Uhr

92
05:00 Uhr
41
14:40 Uhr
1015.6
23:35 Uhr

1010.3
00:00 Uhr
1012.9
0,000
00:00 Uhr
0,000
4.775
419
1138
14:05 Uhr
6.9
14:10 Uhr

10:25:00
4,1
1
25,7
11:55 Uhr

4
10.0
00:25 Uhr
6.7
05:25 Uhr
8.0
05:30 Uhr
2
00:00 Uhr
5.9
00:00 Uhr
5.9
00:00 Uhr
0.0
00:00 Uhr
09
Zeitraffer
16:48
23.5
16:25 Uhr
8.2
04:55 Uhr

92
04:05 Uhr
36
16:20 Uhr
1017.4
09:40 Uhr

1015.4
19:00 Uhr
1016.4
0,000
00:00 Uhr
0,000
5.436
438
1129
14:05 Uhr
7.1
13:05 Uhr

10:14:00
6,5
1
29,0
14:05 Uhr

4
10.2
07:50 Uhr
6.3
18:00 Uhr
8.2
04:55 Uhr
2
00:00 Uhr
5.9
00:00 Uhr
5.9
00:00 Uhr
0.0
00:00 Uhr
10
Zeitraffer
16:49
20.7
12:40 Uhr
11.4
04:10 Uhr

90
23:50 Uhr
41
12:15 Uhr
1017.0
00:00 Uhr

1012.6
19:35 Uhr
1014.7
0,000
00:00 Uhr
0,000
4.724
398
1151
13:15 Uhr
7.4
13:55 Uhr

07:27:00
8,6
2
37,0
14:15 Uhr

5
12.8
22:25 Uhr
6.2
11:25 Uhr
10.1
07:20 Uhr
5
22:20 Uhr
5.9
00:00 Uhr
5.9
00:00 Uhr
0.0
00:00 Uhr
11
Zeitraffer
16:50
22.0
18:10 Uhr
13.9
00:35 Uhr

94
00:55 Uhr
70
18:10 Uhr
1013.0
00:00 Uhr

1010.5
17:45 Uhr
1011.3
0,000
00:00 Uhr
0,000
2.083
186
499
15:40 Uhr
4.3
14:10 Uhr

02:04:00
7,3
2
22,5
14:10 Uhr

4
16.6
16:15 Uhr
12.7
00:00 Uhr
12.6
07:00 Uhr
8
16:00 Uhr
5.9
00:00 Uhr
5.9
00:00 Uhr
0.0
00:00 Uhr
12
Zeitraffer
16:51
28.1
16:50 Uhr
13.6
05:10 Uhr

96
04:20 Uhr
51
16:35 Uhr
1013.1
10:05 Uhr

1010.4
18:00 Uhr
1011.7
0,000
00:00 Uhr
0,000
4.521
362
1042
15:00 Uhr
6.9
13:45 Uhr

07:58:00
6,9
1
29,0
18:05 Uhr

4
18.2
12:15 Uhr
12.9
03:50 Uhr
13.3
05:10 Uhr
11
22:25 Uhr
5.9
00:00 Uhr
5.9
00:00 Uhr
0.0
00:00 Uhr
13
Zeitraffer
16:52
30.7
12:50 Uhr
17.1
05:45 Uhr

95
20:25 Uhr
53
13:00 Uhr
1013.7
19:15 Uhr

1010.3
14:35 Uhr
1011.8
81,600
13:55 Uhr
62,800
2.540
245
860
12:20 Uhr
6.2
12:20 Uhr

05:15:00
7,1
2
49,9
13:45 Uhr

6
21.9
11:50 Uhr
15.7
01:40 Uhr
13.1
19:15 Uhr
13
11:50 Uhr
5.9
00:00 Uhr
5.9
00:00 Uhr
0.0
00:00 Uhr
14
Kein Zeitraffer vorhanden
16:53
26.3
17:35 Uhr
17.0
03:45 Uhr

96
03:25 Uhr
41
18:35 Uhr
1013.6
23:45 Uhr

1011.2
00:05 Uhr
1012.6
2,400
07:15 Uhr
0,200
4.724
375
1137
14:10 Uhr
7.5
12:25 Uhr

07:27:00
7,5
2
25,7
11:20 Uhr

4
17.5
10:05 Uhr
10.8
19:45 Uhr
15.3
08:15 Uhr
11
00:00 Uhr
0.0
00:00 Uhr
0.0
00:00 Uhr
0.0
00:00 Uhr
15
Kein Zeitraffer vorhanden
16:53
25.2
14:35 Uhr
13.6
04:35 Uhr

87
04:35 Uhr
38
14:30 Uhr
1016.0
23:45 Uhr

1013.5
00:55 Uhr
1014.7
0,000
00:00 Uhr
0,000
5.867
478
976
14:25 Uhr
7.3
13:00 Uhr

12:12:00
5,9
1
22,5
11:00 Uhr

4
12.9
09:05 Uhr
8.5
12:10 Uhr
13.6
04:35 Uhr
4
00:00 Uhr
0.0
00:00 Uhr
0.0
00:00 Uhr
0.0
00:00 Uhr


 
Wetter Information zur Wetteranzeige
Zeitraffer
Tageslänge (hh:mm)
Höchsttemperatur in °C
Uhrzeit
Tiefsttemperatur in °C
Uhrzeit
Luftfeuchte (max., in %)
Uhrzeit
Luftfeuchte (min., in %)
Uhrzeit
Luftdruck (max., in hPa)
Uhrzeit
Luftdruck (min., in hPa)
Uhrzeit
Luftdruck (Ø, in hPa)
Regenrate (max, mm/h)
Uhrzeit
Niederschlag in mm
Verdunstung in mm
Solar in W/m² (Ø)
Solar in W/m² (max.)
UV-Index (max.)
Sonnenscheindauer (hh:mm)
Windrichtung (Ø)
Windstärke (Ø in km/h)
Windstärke (Ø in bft)
Windböe (max., in km/h)
Uhrzeit
Windböe (max., in bft)
Uhrzeit
Taupunkt (max., in °C)
Uhrzeit
Taupunkt (min., in °C)
Uhrzeit
Windchill (min., in °C)
Uhrzeit
Gewitterindex (max.)
Uhrzeit
Waldbrandindex (max.)
Uhrzeit
Graslandfeuerindex (max.)
Uhrzeit
Staubsturm-Index (max.)
Uhrzeit
16
Kein Zeitraffer vorhanden
16:54
27.0
17:45 Uhr
11.0
05:25 Uhr

94
03:50 Uhr
37
17:30 Uhr
1016.0
00:00 Uhr

1012.3
18:15 Uhr
1014.2
0,000
00:00 Uhr
0,000
5.613
479
972
13:05 Uhr
7.4
13:00 Uhr

12:49:00
3,2
1
22,5
16:10 Uhr

4
14.9
22:15 Uhr
10.0
05:00 Uhr
11.0
05:25 Uhr
8
22:25 Uhr
0.0
00:00 Uhr
0.0
00:00 Uhr
0.0
00:00 Uhr
17
Kein Zeitraffer vorhanden
16:54
28.8
16:25 Uhr
12.0
05:25 Uhr

94
03:40 Uhr
34
12:55 Uhr
1013.3
00:20 Uhr

1009.5
18:40 Uhr
1011.7
0,000
00:00 Uhr
0,000
5.994
471
970
13:35 Uhr
7.1
13:00 Uhr

12:18:00
4,4
1
27,4
20:10 Uhr

4
14.5
07:40 Uhr
9.6
12:50 Uhr
12.0
05:25 Uhr
7
00:00 Uhr
2.5
16:05 Uhr
3.9
15:20 Uhr
0.0
00:00 Uhr
18
Kein Zeitraffer vorhanden
16:54
24.9
12:15 Uhr
17.5
05:05 Uhr

79
06:20 Uhr
55
16:55 Uhr
1010.9
00:25 Uhr

1009.2
04:15 Uhr
1010.0
0,000
00:00 Uhr
0,000
3.734
273
1016
15:30 Uhr
5.8
15:30 Uhr

05:26:00
6,5
1
22,5
17:35 Uhr

4
16.5
10:45 Uhr
12.3
00:00 Uhr
15.9
06:35 Uhr
8
10:45 Uhr
2.0
12:35 Uhr
3.3
12:10 Uhr
0.0
00:00 Uhr
19
Kein Zeitraffer vorhanden
16:55
18.1
16:50 Uhr
14.8
04:30 Uhr

95
14:10 Uhr
76
00:00 Uhr
1014.0
22:25 Uhr

1010.3
00:30 Uhr
1012.0
4,800
20:30 Uhr
2,800
0.838
79
195
18:25 Uhr
1.4
14:50 Uhr

00:03:00
4,3
1
19,3
00:20 Uhr

3
16.7
18:25 Uhr
13.1
00:20 Uhr
14.3
08:20 Uhr
10
22:25 Uhr
1.4
00:00 Uhr
2.7
00:00 Uhr
0.0
00:00 Uhr
20
Kein Zeitraffer vorhanden
16:55
17.2
08:05 Uhr
14.4
12:55 Uhr

96
03:45 Uhr
84
09:45 Uhr
1017.7
22:05 Uhr

1013.7
00:00 Uhr
1015.6
4,800
14:05 Uhr
6,000
0.787
66
154
10:35 Uhr
1.3
10:35 Uhr

00:00:00
10,4
2
41,8
11:10 Uhr

6
15.9
01:10 Uhr
13.4
12:35 Uhr
9.3
12:35 Uhr
10
00:00 Uhr
0.0
00:00 Uhr
0.8
07:25 Uhr
0.0
00:00 Uhr
21
Kein Zeitraffer vorhanden
16:55
21.7
17:55 Uhr
14.3
04:10 Uhr

96
03:30 Uhr
69
18:00 Uhr
1019.2
21:55 Uhr

1017.0
03:55 Uhr
1017.9
0,000
00:00 Uhr
0,000
1.803
161
492
10:15 Uhr
3.6
10:10 Uhr

01:27:00
7,0
1
30,6
00:15 Uhr

5
17.1
18:50 Uhr
13.7
03:15 Uhr
10.7
00:50 Uhr
9
22:25 Uhr
0.0
00:00 Uhr
0.0
00:00 Uhr
0.0
00:00 Uhr
22
Kein Zeitraffer vorhanden
16:54
25.1
14:10 Uhr
10.2
04:50 Uhr

96
03:40 Uhr
41
16:40 Uhr
1023.9
23:55 Uhr

1018.7
03:00 Uhr
1020.8
0,000
00:00 Uhr
0,000
5.715
461
1038
13:50 Uhr
7.3
13:40 Uhr

11:30:00
6,4
1
41,8
15:00 Uhr

6
15.4
13:20 Uhr
7.9
20:25 Uhr
10.2
04:50 Uhr
6
00:00 Uhr
0.0
00:00 Uhr
1.9
15:05 Uhr
0.0
00:00 Uhr
23
Kein Zeitraffer vorhanden
16:54
23.4
15:05 Uhr
8.9
05:00 Uhr

94
05:20 Uhr
36
13:55 Uhr
1025.7
23:35 Uhr

1023.8
00:00 Uhr
1024.7
0,000
00:00 Uhr
0,000
5.791
476
949
12:40 Uhr
6.9
13:20 Uhr

12:53:00
5,9
1
33,8
16:10 Uhr

5
12.3
07:30 Uhr
6.3
14:15 Uhr
8.9
05:00 Uhr
3
08:50 Uhr
0.1
14:35 Uhr
2.5
15:20 Uhr
0.0
00:00 Uhr
24
Kein Zeitraffer vorhanden
16:54
26.1
17:20 Uhr
9.9
05:00 Uhr

94
04:35 Uhr
49
19:30 Uhr
1025.9
00:45 Uhr

1023.8
19:30 Uhr
1024.9
0,000
00:00 Uhr
0,000
4.064
320
814
10:35 Uhr
4.9
11:20 Uhr

07:35:00
5,6
1
25,7
15:15 Uhr

4
16.0
17:20 Uhr
8.9
04:55 Uhr
9.9
05:00 Uhr
9
22:25 Uhr
2.7
17:45 Uhr
4.9
17:55 Uhr
0.0
00:00 Uhr
25
Kein Zeitraffer vorhanden
16:53
28.1
17:05 Uhr
17.8
04:25 Uhr

86
04:25 Uhr
44
17:40 Uhr
1024.0
00:00 Uhr

1020.3
19:20 Uhr
1022.0
0,000
00:00 Uhr
0,000
4.597
360
1069
13:15 Uhr
7.2
12:35 Uhr

08:05:00
5,9
1
27,4
11:35 Uhr

4
17.8
10:20 Uhr
14.0
17:45 Uhr
17.8
04:25 Uhr
10
01:15 Uhr
3.0
16:55 Uhr
5.3
18:30 Uhr
0.0
00:00 Uhr
26
Kein Zeitraffer vorhanden
16:53
28.9
13:05 Uhr
15.0
04:55 Uhr

95
22:35 Uhr
54
11:05 Uhr
1020.7
00:00 Uhr

1011.9
23:50 Uhr
1016.4
16,800
18:20 Uhr
6,800
3.327
276
1110
13:05 Uhr
6.9
13:00 Uhr

06:37:00
3,7
1
40,2
18:15 Uhr

5
21.3
14:50 Uhr
13.9
03:50 Uhr
15.0
04:55 Uhr
12
14:30 Uhr
2.7
11:45 Uhr
4.9
13:05 Uhr
0.0
00:00 Uhr
27
Kein Zeitraffer vorhanden
16:52
31.0
16:25 Uhr
15.8
04:50 Uhr

97
05:00 Uhr
40
15:45 Uhr
1012.1
00:15 Uhr

1008.1
17:35 Uhr
1010.1
0,000
00:00 Uhr
0,000
4.775
421
984
14:55 Uhr
7.2
13:05 Uhr

09:40:00
3,1
1
30,6
21:10 Uhr

5
20.9
20:30 Uhr
14.6
16:10 Uhr
15.8
04:50 Uhr
13
22:50 Uhr
0.0
00:00 Uhr
1.6
17:05 Uhr
0.0
00:00 Uhr
28
Kein Zeitraffer vorhanden
16:52
27.1
11:35 Uhr
17.0
05:10 Uhr

95
04:15 Uhr
54
11:35 Uhr
1013.5
21:35 Uhr

1009.4
00:05 Uhr
1011.7
2,400
15:20 Uhr
0,200
3.124
244
870
10:25 Uhr
5.3
10:45 Uhr

04:57:00
3,9
1
29,0
16:25 Uhr

4
19.2
09:35 Uhr
14.7
23:25 Uhr
17.0
05:10 Uhr
13
00:00 Uhr
0.0
00:00 Uhr
2.9
11:20 Uhr
0.0
00:00 Uhr
29
Kein Zeitraffer vorhanden
16:51
24.4
14:45 Uhr
14.3
05:45 Uhr

88
04:35 Uhr
41
15:00 Uhr
1013.6
01:30 Uhr

1008.7
20:55 Uhr
1011.2
2,400
16:30 Uhr
1,200
3.327
293
1106
13:45 Uhr
6.8
13:40 Uhr

06:01:00
2,7
1
22,5
16:10 Uhr

4
15.5
19:15 Uhr
9.6
15:35 Uhr
13.5
16:25 Uhr
9
00:00 Uhr
0.0
00:00 Uhr
3.1
15:35 Uhr
0.0
00:00 Uhr
30
Kein Zeitraffer vorhanden
16:50
22.6
17:35 Uhr
11.2
03:35 Uhr

94
03:35 Uhr
43
16:50 Uhr
1009.2
00:00 Uhr

1007.1
17:20 Uhr
1008.0
0,000
00:00 Uhr
0,000
4.801
359
1132
13:20 Uhr
7.8
14:20 Uhr

07:32:00
7,3
2
40,2
16:10 Uhr

5
11.9
00:05 Uhr
8.3
08:50 Uhr
11.2
03:35 Uhr
4
00:00 Uhr
1.4
17:05 Uhr
3.6
18:05 Uhr
0.0
00:00 Uhr
Stationsstandorte || Wetterblog || Wissenswertes || Downloads || Seitenhistorie || Partner || Impressum / Datenschutz